Theta_e
311 312 312 312 311 311 312 313 314 315 315 317 318 317 318 320 319 318 322 325 322 319 318 317 316 317 319 320 321 322 322 321 320 320 320 319 319 317 316 315 315 315 314 315 317 316 317 319 321 322 323 323 323 323 323 324 324 324 325 325 325 325 325 325 325 325 325 324 324 324 323 323 323 322 322 323 324 323 324 324 323 322 322 322 323 323 323
311 312 312 312 312 312 312 312 313 314 314 316 317 318 318 320 322 322 322 321 317 315 315 314 313 314 316 317 319 319 319 318 317 317 317 316 316 315 314 313 313 313 313 314 314 313 314 315 315 317 318 320 322 322 323 323 323 323 323 324 323 323 323 324 324 324 324 324 324 323 323 323 322 322 322 323 324 325 325 324 323 322 322 322 323 323 322
312 312 313 313 313 313 313 313 313 314 314 315 316 317 317 318 321 320 319 318 314 313 313 313 312 313 314 315 316 317 317 316 315 314 314 314 313 313 312 312 312 311 311 312 312 312 312 312 312 313 313 315 317 317 319 320 322 322 323 323 323 323 323 323 323 323 323 324 323 323 323 322 322 322 322 323 324 324 324 323 323 323 323 323 323 323 323
314 313 313 313 313 312 312 314 315 315 315 314 313 312 313 316 319 319 318 317 314 313 312 311 310 310 310 310 310 311 311 312 312 312 312 312 312 312 311 311 310 310 310 311 311 310 310 310 310 311 311 311 312 312 313 314 316 318 320 321 322 322 323 322 322 322 322 322 322 322 322 322 322 322 321 322 323 323 323 323 323 323 323 322 322 322 322
315 313 313 314 315 315 314 314 314 314 313 311 310 309 310 311 314 316 316 315 313 312 312 310 308 306 305 305 305 305 305 306 306 307 308 309 309 309 308 308 308 308 308 309 309 309 309 309 309 309 309 310 310 310 310 310 311 312 314 315 316 317 319 320 321 322 321 322 322 322 322 322 321 322 322 322 322 323 323 322 321 322 321 320 321 321 320
316 314 313 314 316 317 314 310 309 311 312 311 309 309 309 309 309 310 312 310 310 311 311 309 306 304 302 302 302 302 303 303 304 305 304 305 305 306 306 306 306 306 307 306 306 307 307 307 307 307 308 308 309 309 309 310 310 310 311 311 311 312 314 315 316 316 316 318 319 320 321 322 321 322 322 322 322 322 321 320 319 320 319 318 318 318 318
315 313 313 316 318 315 310 308 307 309 310 309 308 307 307 308 308 308 308 307 307 306 306 304 303 302 301 300 300 301 301 301 302 302 302 302 303 303 303 304 305 305 305 305 305 305 304 304 305 305 306 307 307 308 308 308 309 309 310 310 310 311 311 311 311 311 311 312 313 315 318 320 321 321 321 321 321 320 319 318 317 316 314 314 314 315 317
314 314 314 316 315 309 307 307 307 308 308 309 309 308 307 307 308 308 307 305 304 303 302 302 302 301 300 300 300 300 300 300 300 300 300 301 301 301 301 302 303 304 304 304 304 304 304 303 303 304 304 305 306 306 307 307 308 308 309 309 310 310 310 310 309 309 310 310 310 312 313 315 317 318 319 319 319 318 317 317 317 315 313 313 314 315 316
312 314 314 312 311 310 308 307 306 306 308 308 309 309 307 305 307 307 305 304 304 303 302 302 302 302 302 302 300 300 300 300 301 301 301 301 301 300 300 300 301 301 301 302 302 303 303 303 303 303 303 303 304 305 305 305 306 307 307 307 308 308 309 310 310 309 309 309 309 310 310 311 312 313 315 316 317 316 316 316 317 316 315 316 315 314 315
309 312 313 312 312 312 310 307 305 305 305 305 307 309 307 304 305 305 304 304 304 303 303 303 303 304 305 304 301 300 300 300 301 301 301 301 301 301 301 300 301 301 300 300 301 302 303 302 302 302 302 302 303 304 304 304 304 305 306 306 306 307 307 308 309 309 309 309 309 310 310 309 310 311 314 315 315 315 314 314 315 314 313 313 313 312 313
308 311 312 312 312 311 309 307 305 304 304 304 306 309 308 304 303 304 304 304 303 303 304 304 304 307 308 305 301 300 300 300 301 301 301 301 301 301 301 300 301 301 301 301 301 301 302 302 302 302 302 302 302 303 303 303 303 304 305 304 304 304 305 306 307 308 309 309 309 310 310 310 311 312 313 313 313 312 312 312 312 311 310 309 309 309 308
309 310 310 311 311 308 306 305 304 302 303 304 307 310 308 303 302 303 303 303 303 303 304 304 305 306 306 304 301 300 300 301 301 300 300 301 300 300 300 299 299 300 300 300 301 301 301 301 301 301 301 301 302 302 302 303 303 304 304 303 303 303 303 304 305 306 307 307 308 309 310 310 311 311 311 312 311 311 310 309 309 308 307 308 308 308 306
309 310 310 311 309 305 304 304 303 302 303 305 308 309 305 302 301 302 302 302 303 302 303 304 303 302 302 301 300 300 300 301 300 300 300 300 299 299 299 298 298 298 299 299 300 300 299 299 299 300 300 301 301 301 302 302 302 303 303 303 303 303 303 303 303 304 305 306 307 307 308 309 310 310 310 310 311 311 310 308 308 307 307 308 309 308 307
308 309 310 310 309 305 303 303 303 303 306 307 306 304 302 302 302 302 302 302 302 302 302 302 302 301 300 300 300 300 300 300 300 300 299 299 299 299 298 298 297 297 298 298 298 298 298 298 298 299 299 300 301 301 301 302 302 302 302 302 302 302 303 303 303 304 304 305 306 306 307 307 309 309 309 309 310 310 309 309 310 310 309 309 310 309 309
306 307 309 310 308 304 302 304 303 304 305 305 302 301 301 302 301 302 302 302 302 302 302 301 301 301 301 300 300 299 299 299 299 299 298 298 298 297 297 297 296 296 296 297 297 297 297 297 297 297 298 299 299 300 301 301 301 302 302 301 301 301 302 302 302 303 303 304 305 305 306 306 307 308 309 309 310 309 309 310 311 311 310 309 310 310 309
306 307 307 306 305 303 302 303 303 303 302 302 301 301 301 301 301 302 302 301 301 301 302 301 301 300 300 299 299 298 298 298 298 298 297 297 297 296 296 296 295 295 295 296 296 296 296 296 296 297 297 297 298 299 299 300 300 301 301 300 301 301 301 301 302 302 302 303 303 304 305 306 306 307 307 308 310 309 309 309 309 309 309 309 309 309 309
304 305 303 302 301 302 302 303 302 302 302 302 302 302 301 301 302 302 301 301 300 300 300 300 299 299 298 298 297 297 297 297 297 297 296 295 295 295 295 295 295 295 295 295 296 296 296 296 296 296 296 296 297 297 298 298 298 299 299 300 300 300 300 301 301 301 302 302 303 303 304 304 305 306 306 307 309 310 309 309 309 308 309 308 308 309 309
302 302 302 301 301 301 301 301 301 301 301 301 301 301 301 300 300 300 300 299 298 298 298 298 298 297 296 296 296 295 296 296 296 295 295 295 295 295 295 295 295 294 295 295 295 296 296 296 296 296 296 296 296 297 296 296 297 297 297 298 299 299 300 300 300 301 301 301 302 302 303 303 304 304 305 306 307 309 309 309 309 309 309 309 308 309 309
302 303 302 301 301 301 301 300 300 300 300 299 299 299 299 298 298 298 297 297 297 297 296 296 296 296 295 295 295 294 294 295 295 295 295 295 295 295 295 295 295 295 295 295 295 295 295 296 295 295 295 295 296 296 296 296 296 296 296 296 297 298 299 299 300 300 300 301 301 301 302 303 303 303 304 305 305 307 308 309 309 309 309 309 308 308 308
302 303 302 301 301 301 300 300 300 299 299 298 298 298 298 297 297 297 297 297 296 296 296 295 295 295 295 294 294 294 294 295 295 295 295 295 295 295 295 294 294 295 295 295 295 295 295 295 295 295 296 296 296 296 296 296 296 296 296 296 296 296 297 298 298 299 300 300 300 300 301 301 302 302 303 304 304 305 306 308 308 308 308 308 308 308 307
302 301 301 300 300 300 300 300 300 299 299 299 298 298 298 298 297 297 297 297 297 296 296 296 295 295 295 295 294 294 294 295 295 295 295 295 295 295 295 294 294 294 294 294 295 295 295 295 295 296 296 296 296 296 296 296 296 296 296 296 296 296 296 297 297 298 298 299 300 300 300 300 301 302 302 303 305 305 306 307 308 308 308 308 308 308 307
301 301 301 300 300 300 300 300 300 300 299 299 299 298 298 298 297 297 297 297 297 296 296 296 296 295 295 295 295 295 295 295 295 294 294 295 295 295 294 294 294 294 295 295 295 295 295 296 296 296 296 296 297 297 297 296 296 296 296 296 296 296 296 297 297 297 297 298 299 300 300 300 300 301 302 303 303 302 303 305 307 308 308 308 307 308 307
300 301 301 300 300 300 300 300 299 299 299 299 298 298 298 298 297 297 297 296 296 296 295 295 296 295 295 295 295 295 295 294 294 294 294 295 295 295 295 295 295 295 295 295 295 295 296 296 296 296 296 296 297 296 296 296 296 296 296 296 296 295 295 296 296 296 296 297 297 298 300 300 300 301 301 302 302 300 300 302 303 305 307 307 307 307 307
300 300 300 300 300 300 300 300 299 299 299 299 298 297 297 298 297 297 297 296 296 295 295 295 295 295 295 294 294 294 294 294 293 294 294 294 294 294 295 295 295 295 295 295 295 295 296 296 296 296 296 296 296 295 295 295 295 295 295 295 295 295 295 295 295 295 296 296 296 297 298 299 300 300 301 302 302 301 300 300 300 302 303 305 306 305 306
299 300 300 299 299 299 299 299 299 299 299 299 298 297 297 297 297 296 296 296 295 295 295 295 295 294 294 294 294 293 293 293 293 292 293 294 294 294 294 295 295 295 295 295 295 296 296 296 296 295 295 295 295 294 294 294 294 294 294 294 294 294 294 294 294 294 295 295 296 296 297 298 299 300 300 301 302 302 301 300 299 300 301 301 302 303 304
299 299 299 298 298 298 298 298 298 299 299 298 297 297 297 296 295 295 295 295 295 294 295 295 295 294 294 293 293 293 293 293 292 292 293 294 294 294 295 295 294 294 295 295 296 296 296 295 295 294 294 294 294 293 293 293 293 293 293 293 293 293 293 293 293 294 294 295 295 296 296 297 298 299 300 300 301 302 303 302 301 301 301 300 300 301 301
298 298 298 298 298 298 298 298 298 298 298 297 297 297 296 295 294 294 294 294 294 294 294 294 294 294 294 293 293 293 293 292 292 292 293 294 294 294 295 295 294 295 295 295 295 296 295 295 294 294 294 293 293 293 293 293 293 293 293 293 293 293 293 293 293 293 293 294 295 295 296 297 298 298 299 300 300 301 303 303 303 303 303 301 300 300 299
298 298 298 298 298 298 298 298 298 297 297 297 296 296 296 295 294 294 294 294 294 294 293 293 293 293 294 294 293 293 293 293 293 293 293 294 294 294 294 294 294 294 295 295 296 296 295 295 294 293 293 293 293 293 293 293 293 293 293 294 294 294 294 294 293 293 293 293 293 294 295 296 297 298 298 299 300 301 302 303 303 303 304 302 300 300 299
298 298 298 298 298 298 298 298 297 297 297 296 296 296 295 295 294 294 294 294 294 294 294 294 293 293 294 293 293 293 293 292 292 292 293 293 294 294 293 293 294 294 295 296 296 296 295 295 294 294 294 293 293 293 293 293 293 294 294 294 295 295 294 294 294 294 294 293 293 293 294 294 296 297 298 298 299 300 301 302 302 302 302 301 299 299 299
298 298 297 298 298 298 298 297 296 296 296 296 296 295 295 294 293 293 294 294 295 294 294 294 293 293 293 293 293 292 292 291 291 291 291 292 292 292 292 292 293 295 296 296 296 295 295 295 295 295 294 294 294 293 293 294 294 294 294 294 295 295 295 294 294 294 294 293 292 292 293 293 294 296 297 298 298 299 300 301 301 301 301 300 299 299 297
298 298 298 298 298 297 297 296 296 295 295 295 295 295 294 294 293 293 294 295 295 294 294 294 293 293 293 292 292 292 291 290 289 290 290 290 291 290 290 290 291 293 294 294 294 295 295 295 295 295 295 294 294 293 293 294 294 294 294 294 295 295 295 294 293 293 293 293 292 292 292 293 294 295 296 298 298 298 299 300 300 301 301 301 300 300 298
298 298 298 298 297 297 296 296 296 295 295 295 295 294 294 294 294 294 294 294 294 294 294 294 293 293 292 291 291 291 290 288 288 289 289 289 289 289 288 289 290 291 291 292 293 295 295 295 295 295 295 294 294 294 294 293 294 294 294 294 294 295 294 293 293 293 293 292 292 292 292 293 293 294 296 297 298 298 299 299 299 300 301 301 300 299 296
298 298 298 297 297 297 296 296 296 295 295 295 295 294 294 294 294 294 294 294 294 294 294 293 293 292 291 290 290 289 288 288 290 290 289 288 288 288 289 290 290 291 292 293 294 294 294 294 295 295 294 295 295 294 293 293 293 294 294 293 294 294 294 293 293 293 292 292 292 292 292 293 293 294 296 297 298 298 298 298 299 300 301 301 299 297 294
297 297 297 297 297 297 296 296 296 295 295 295 295 295 295 294 294 294 294 293 293 294 294 293 292 291 290 289 289 288 288 289 291 291 289 288 288 288 289 290 291 291 292 294 294 294 294 294 294 293 293 294 295 294 293 292 293 294 293 293 293 293 293 292 292 292 292 292 291 291 292 292 293 294 296 297 297 297 298 298 298 299 300 299 297 294 293
297 297 297 298 298 298 297 297 296 295 295 295 294 294 295 294 294 294 293 293 293 293 293 291 290 289 288 289 289 288 287 288 289 289 288 288 289 288 289 290 290 290 292 294 293 293 293 294 293 293 293 294 295 295 293 292 293 293 293 293 293 293 293 292 291 291 291 292 292 292 293 293 293 294 296 297 296 297 297 297 296 297 297 296 294 292 291
297 298 298 298 298 298 297 297 297 296 296 295 294 294 294 294 294 294 294 293 293 293 292 290 288 288 288 289 288 287 287 287 288 288 288 288 289 288 288 289 289 290 292 293 292 292 292 293 293 293 294 295 296 295 294 293 293 293 293 293 293 293 293 293 292 292 292 292 293 292 292 293 294 295 296 296 296 296 296 295 294 294 295 294 293 292 291
297 297 298 298 297 297 297 297 297 296 296 295 294 294 294 294 294 294 294 293 293 293 292 290 289 288 288 288 288 287 286 287 288 288 288 288 288 288 289 289 289 290 292 293 291 291 292 292 292 293 295 296 296 295 294 293 294 294 294 293 293 293 292 292 292 292 292 293 294 294 294 294 295 295 296 296 296 296 295 294 293 293 293 293 293 292 292
297 297 298 298 297 296 296 296 296 296 296 295 295 294 294 294 294 294 294 293 292 292 292 291 291 290 290 289 288 287 286 287 288 288 288 288 288 289 289 290 290 290 291 291 290 290 291 291 292 293 295 295 296 296 295 294 294 295 295 294 293 293 293 292 292 292 292 292 293 294 295 295 295 296 296 296 295 295 295 294 294 293 293 293 293 292 292
297 297 298 298 297 296 296 296 296 295 296 296 295 295 294 294 294 294 294 294 293 292 292 291 292 292 291 291 290 288 287 287 288 288 288 288 288 288 289 289 289 288 289 289 289 290 291 291 292 293 294 294 295 295 294 294 295 295 295 295 294 293 293 293 293 292 292 291 291 292 294 294 295 295 295 295 294 293 293 293 293 293 293 292 292 292 291
298 297 297 297 297 296 296 296 296 295 295 295 295 295 295 294 294 295 295 294 293 292 292 291 292 292 292 291 291 290 288 288 288 288 288 288 288 289 290 290 289 288 288 288 289 290 290 290 291 293 294 294 294 294 293 294 295 296 296 295 294 293 293 292 292 292 292 291 291 291 291 293 294 294 294 294 293 293 292 292 293 292 292 291 291 291 291
298 297 297 297 297 297 296 296 296 295 295 295 295 295 295 294 294 295 295 294 293 292 291 291 291 291 292 292 291 290 289 288 288 288 288 289 289 290 291 291 290 288 288 288 289 290 290 290 291 292 292 292 293 293 293 294 295 296 296 295 295 294 293 292 292 292 291 291 290 290 291 291 292 293 292 293 293 292 292 292 292 291 291 291 291 290 291
298 298 297 297 297 297 297 297 296 296 296 295 295 294 294 294 295 295 295 294 293 292 292 291 291 290 290 291 290 289 289 289 289 289 289 289 289 289 290 291 290 288 287 288 289 290 291 291 290 290 290 291 291 292 293 294 295 295 295 295 295 294 294 293 292 291 291 290 290 290 290 290 291 291 291 291 291 291 291 291 290 290 290 290 290 290 290
297 297 297 297 297 297 297 297 297 297 296 296 295 295 295 295 295 295 295 295 293 292 292 292 291 290 290 290 290 290 289 289 289 289 289 289 289 288 288 289 289 287 286 287 289 290 290 290 289 289 289 290 291 291 293 294 294 295 294 295 295 294 294 293 293 292 291 291 291 290 290 290 290 290 290 290 290 290 290 290 289 289 290 290 290 290 290
297 297 297 297 297 297 297 297 297 297 297 296 296 295 295 295 295 295 295 295 294 292 292 291 291 291 290 290 290 290 290 289 290 290 290 290 290 289 287 287 287 287 286 287 289 290 289 288 288 287 288 288 289 291 292 293 294 294 294 294 294 294 293 293 293 293 292 291 291 290 290 290 290 290 290 289 289 289 290 289 289 289 289 289 290 290 290
297 297 297 297 297 297 297 297 297 297 297 296 296 295 295 295 295 295 295 295 294 293 292 291 291 291 291 291 291 290 290 289 289 290 290 290 291 290 288 287 287 286 286 287 289 289 288 287 286 286 286 287 288 290 291 292 292 292 292 293 293 293 292 292 292 292 292 292 291 291 290 290 290 289 289 289 290 290 290 290 290 290 290 290 290 290 290
297 297 297 297 297 297 297 296 297 297 297 296 296 296 295 295 295 295 295 295 294 293 293 292 291 290 290 290 291 290 289 289 289 289 289 289 290 288 286 285 285 285 285 287 289 289 287 286 285 286 286 286 287 289 290 290 290 291 291 291 291 292 292 291 291 291 290 290 291 291 291 290 290 289 289 289 289 289 289 289 289 290 290 289 289 289 289
297 297 297 297 297 297 297 297 297 297 297 297 296 296 296 296 295 295 295 295 295 294 293 292 292 291 290 290 290 290 290 290 289 289 289 289 288 286 285 284 284 284 285 286 287 286 285 285 285 285 285 286 288 289 289 289 289 290 290 290 290 290 290 290 290 290 290 289 289 289 290 290 289 289 289 289 288 288 288 288 288 288 288 288 288 288 287
296 296 296 296 296 296 297 297 297 297 297 297 296 296 296 296 296 296 295 295 295 295 294 293 292 292 291 290 290 290 290 290 290 290 289 289 288 287 287 286 284 284 285 286 286 285 284 285 285 284 285 287 288 289 289 289 289 289 289 289 289 289 289 289 289 289 289 289 289 288 288 288 288 288 288 288 287 287 287 287 287 287 287 287 286 286 286
296 295 296 296 296 296 297 297 297 297 297 296 296 296 296 296 296 296 296 296 295 295 294 293 293 292 291 290 290 289 289 289 290 289 289 289 288 288 287 286 284 283 286 288 288 285 284 284 284 284 286 288 288 288 288 288 288 288 288 288 288 288 288 288 288 288 288 287 287 287 287 287 287 287 286 286 286 285 285 285 284 285 285 285 285 284 284
296 296 296 296 296 296 297 297 296 296 296 296 296 296 296 296 296 296 296 296 296 296 295 294 293 293 292 291 290 290 289 289 288 288 288 288 288 288 287 286 285 284 285 287 287 286 285 284 284 285 286 288 288 288 288 287 287 286 286 286 286 286 286 286 287 287 288 287 287 286 286 286 286 285 285 285 285 284 284 283 283 283 283 283 283 283 283
296 296 296 296 296 296 296 296 296 295 296 296 296 296 296 296 295 295 296 296 296 296 295 294 294 293 292 292 291 291 290 290 289 287 287 288 288 287 286 286 285 284 284 285 287 287 286 286 286 286 286 287 288 287 287 287 286 286 286 286 286 285 285 285 285 286 286 287 287 287 286 286 286 285 285 285 284 284 284 283 283 283 283 282 282 282 281
296 296 296 296 296 296 296 296 296 296 296 296 296 296 296 296 295 295 296 296 296 296 296 295 295 294 293 292 292 291 291 290 289 288 287 288 288 287 286 285 285 285 285 285 286 287 286 286 285 285 286 287 287 286 286 286 286 285 285 285 285 285 285 285 285 285 285 285 285 286 286 286 286 285 285 285 285 285 284 284 284 283 283 282 282 281 281
Wind_Speed
6 7 8 8 7 7 8 8 9 9 7 5 4 4 7 7 3 2 7 13 12 9 8 8 7 7 7 8 8 9 10 11 11 11 11 11 11 11 13 12 13 13 12 12 14 15 14 13 13 12 11 10 10 9 8 8 7 7 6 5 5 5 5 4 5 5 6 6 7 8 9 11 11 12 13 14 14 14 14 14 13 13 13 12 12 12 11
7 6 7 8 8 7 7 9 9 9 10 10 9 8 8 8 7 7 10 15 13 8 7 8 7 6 7 8 8 9 11 11 11 11 12 12 12 12 13 13 13 13 13 14 15 15 15 15 14 13 12 10 10 10 9 9 8 7 7 6 5 5 5 5 4 4 4 4 5 6 7 8 9 10 11 12 12 13 13 12 12 11 11 11 11 11 11
6 4 5 6 6 5 5 5 6 6 7 8 8 7 7 6 8 9 11 13 10 6 7 8 8 8 9 9 10 10 10 10 11 11 12 13 13 13 13 13 13 13 13 14 16 16 15 15 14 13 12 12 11 10 9 8 8 7 6 6 6 5 5 5 4 3 3 3 3 4 5 6 7 8 9 10 10 11 11 11 11 10 10 10 9 9 9
6 4 3 3 4 5 5 6 4 5 5 5 6 5 5 4 4 8 8 7 7 6 8 9 9 10 11 11 11 11 10 10 11 12 12 12 13 13 13 13 13 13 13 14 15 15 15 15 14 13 12 12 12 12 10 9 8 7 6 6 5 5 4 4 3 3 2 2 2 3 4 5 6 7 7 8 8 8 9 10 10 8 7 7 6 6 7
5 6 5 3 2 2 5 5 1 5 4 5 6 5 5 5 3 1 3 6 7 8 9 10 11 11 11 11 10 10 11 11 12 12 11 11 12 13 13 13 13 13 13 14 14 14 14 14 14 13 13 13 12 11 10 9 9 8 8 7 6 5 4 4 3 2 2 1 1 1 3 4 5 5 6 6 6 6 7 8 8 7 6 5 6 8 9
5 7 8 5 4 6 3 0 1 2 3 6 6 5 5 5 4 3 6 9 9 9 9 11 12 12 12 11 11 11 11 10 9 10 11 11 12 13 13 13 13 13 14 14 14 14 14 14 13 13 12 11 10 10 9 9 8 7 7 7 6 6 5 4 4 3 2 2 1 0 1 3 5 6 6 6 6 7 8 9 9 9 8 7 9 11 10
3 7 8 6 7 5 2 2 3 2 4 10 12 10 7 6 6 8 11 11 10 9 10 11 13 13 13 13 12 12 12 11 10 10 10 10 11 12 12 12 12 14 14 14 14 14 14 13 13 13 13 11 9 9 8 8 7 7 6 6 6 5 4 4 4 3 3 2 1 0 1 2 4 5 6 6 7 8 9 10 9 8 7 8 9 10 9
2 6 7 5 2 2 4 4 5 5 7 10 11 9 7 6 6 9 10 11 11 11 11 11 12 14 13 12 11 11 11 10 10 8 7 7 8 10 11 12 13 15 15 14 14 13 13 13 13 13 13 12 10 9 8 7 7 6 6 6 6 5 4 3 3 3 2 2 1 0 1 2 4 5 5 6 7 8 8 8 8 9 8 8 9 9 8
3 6 7 3 3 3 4 5 4 3 3 3 2 4 6 5 4 8 11 12 12 12 11 11 11 12 11 9 8 9 9 8 8 8 7 7 8 8 9 11 13 14 15 15 15 13 13 14 14 14 13 12 10 9 9 8 7 6 6 6 7 6 5 4 4 4 3 3 3 3 3 4 5 5 6 7 7 8 9 9 9 10 10 9 10 11 10
3 6 5 4 4 4 4 6 4 2 3 3 3 2 6 4 3 7 11 12 12 11 11 11 9 7 6 6 6 7 8 8 8 9 10 10 10 10 10 11 11 12 13 13 13 13 13 14 15 14 14 13 11 10 10 9 8 7 7 7 8 7 6 6 5 5 4 4 5 5 6 7 6 6 6 7 8 9 10 10 11 11 12 12 11 11 10
4 6 7 6 4 1 4 5 4 3 1 2 3 2 5 5 4 5 8 10 10 9 8 8 5 4 4 5 6 5 7 8 8 8 9 10 11 11 12 12 12 11 11 11 11 12 13 14 15 15 14 13 12 11 11 11 10 8 8 9 9 8 8 8 7 6 6 6 6 6 6 7 7 6 6 7 9 10 10 10 11 11 11 11 11 10 9
2 5 6 3 1 3 3 2 2 3 2 2 4 5 5 8 6 5 7 8 7 5 5 4 1 2 1 5 6 5 6 7 8 9 9 9 10 11 12 13 12 12 11 12 12 13 13 13 13 13 13 12 11 10 10 10 9 8 8 9 9 9 9 8 8 7 6 6 7 7 7 6 6 6 6 7 9 11 10 10 11 12 11 11 11 11 11
3 4 5 2 2 3 2 2 3 3 1 3 4 3 5 10 9 7 7 7 6 5 3 2 3 5 6 7 7 6 6 6 7 8 8 8 9 9 10 10 10 10 10 10 11 11 11 12 12 12 12 11 11 10 10 10 9 9 9 9 9 10 10 10 10 9 8 7 8 8 9 8 8 7 8 8 9 11 11 11 12 13 13 12 12 12 12
3 4 5 3 2 3 3 2 2 1 2 2 2 3 7 10 9 8 8 8 8 7 7 7 7 7 7 7 6 6 6 6 6 7 8 8 8 8 8 8 9 10 9 9 9 10 10 11 11 11 11 11 11 11 10 11 11 10 10 10 11 11 11 11 11 11 10 9 9 9 9 9 9 10 10 11 11 12 12 12 12 12 12 12 12 12 11
2 4 5 4 1 3 3 2 1 0 1 2 5 7 8 9 9 9 8 8 7 7 7 8 7 7 7 6 6 6 6 6 7 7 8 8 8 9 9 9 9 10 10 9 9 10 10 10 9 9 10 11 11 11 11 12 12 11 11 12 12 12 13 13 13 13 12 11 10 10 10 10 11 12 12 13 13 14 14 13 13 13 14 13 12 11 11
3 4 3 0 1 3 3 3 3 5 5 5 7 7 8 8 7 6 7 7 7 7 6 6 6 6 5 5 5 5 5 6 7 8 8 8 9 9 9 9 9 9 9 9 9 9 9 9 9 9 9 10 11 12 13 13 13 13 13 13 13 13 13 14 14 14 14 13 12 11 11 10 11 12 13 15 16 17 16 17 16 15 15 15 14 13 12
3 2 4 4 3 4 5 5 7 9 9 8 7 7 7 6 5 5 6 6 7 7 6 4 4 5 4 5 5 5 5 5 6 7 8 8 8 8 8 8 8 9 9 8 9 9 9 9 9 9 9 10 11 12 13 13 13 14 15 15 15 15 15 15 15 15 15 15 14 14 13 13 12 13 13 16 18 19 19 19 19 18 17 16 16 15 13
6 6 6 6 6 7 8 8 8 9 9 8 7 8 7 6 6 6 6 6 6 6 5 4 4 4 4 4 4 4 4 4 5 6 6 7 7 8 8 8 9 9 9 8 9 10 10 10 10 9 9 10 11 12 13 13 13 14 15 15 16 17 17 17 17 17 18 18 17 16 15 15 15 15 15 16 18 20 20 21 22 21 19 17 18 18 15
3 4 6 7 8 8 8 8 8 9 9 8 7 7 7 6 6 6 6 5 5 4 4 4 3 3 4 3 3 4 4 4 5 6 7 8 8 9 10 10 11 11 11 10 11 12 13 13 12 11 11 11 12 12 13 13 14 14 14 15 16 17 18 18 19 19 19 19 19 18 17 16 17 17 17 17 18 20 21 22 22 22 19 19 21 21 18
2 5 8 8 7 7 6 5 6 6 7 8 7 7 7 6 6 6 5 4 4 3 4 4 3 3 4 4 5 4 4 4 5 6 8 9 10 10 11 11 12 12 12 12 13 13 13 13 12 11 11 11 12 13 13 13 14 15 15 15 16 17 18 18 19 20 20 20 20 20 19 19 19 19 19 19 19 20 22 22 22 22 22 22 21 21 20
5 7 8 8 7 7 6 5 6 6 6 7 7 7 6 6 5 5 5 4 4 4 4 4 4 4 4 5 6 5 4 5 6 7 8 9 10 10 11 11 11 11 10 11 11 11 11 11 11 12 12 13 13 14 14 14 15 16 17 17 18 19 18 18 19 19 20 21 21 21 20 21 20 21 20 19 17 17 18 19 19 19 20 21 20 19 20
3 5 8 8 4 4 6 6 6 6 5 5 5 4 4 4 3 3 3 4 4 4 4 4 4 4 4 6 6 6 5 6 7 7 8 8 9 9 9 9 8 8 8 9 10 11 12 12 13 14 15 15 16 16 16 17 17 18 19 19 20 20 19 19 19 19 19 20 21 20 21 21 20 20 21 20 20 19 17 17 18 19 19 19 18 18 18
3 6 8 5 1 2 7 8 6 6 4 3 3 3 2 3 3 2 2 2 3 4 4 4 4 4 5 6 7 7 7 7 7 6 6 7 8 8 8 8 8 9 10 11 11 12 13 13 14 16 17 18 18 18 18 18 18 19 19 20 20 20 20 20 20 20 20 21 20 20 21 22 21 20 19 18 20 21 21 19 20 21 23 21 20 20 18
6 6 7 4 4 4 7 7 6 5 3 2 2 3 3 3 3 3 2 3 3 3 2 2 4 5 6 7 7 7 7 7 6 6 7 7 7 7 7 8 9 10 11 11 11 12 12 13 15 17 18 19 19 19 18 18 18 18 19 19 20 20 20 20 21 21 21 22 22 21 21 22 23 22 20 18 17 17 19 20 18 19 22 22 21 23 22
6 6 6 6 6 6 7 5 5 4 3 2 2 2 2 3 3 2 2 3 3 3 3 3 4 5 5 6 7 7 7 7 6 7 7 6 5 6 7 7 8 10 10 11 11 11 12 14 15 17 19 19 19 18 17 17 17 18 19 19 20 21 21 21 21 21 21 21 22 22 21 21 22 23 22 21 17 15 15 16 16 16 19 21 19 19 21
6 7 6 6 6 6 4 3 4 4 3 2 1 1 1 2 2 1 2 2 2 2 3 4 4 4 5 5 6 6 6 6 6 6 6 5 5 6 6 7 8 9 10 11 11 12 13 15 16 18 19 19 19 18 17 17 17 18 19 19 20 21 22 22 22 22 21 20 21 21 21 20 21 22 22 21 19 16 13 12 12 12 15 18 18 17 17
6 6 5 4 5 4 3 1 2 3 3 2 1 1 2 3 2 2 1 1 1 2 3 3 4 4 4 5 5 5 5 5 5 5 5 5 5 5 6 7 8 9 10 11 11 13 14 16 17 18 19 19 18 17 17 17 17 17 18 19 20 21 22 24 24 24 23 21 20 20 20 19 19 21 22 20 19 18 15 11 11 12 12 12 14 16 15
5 4 2 1 2 3 3 2 2 3 3 2 2 2 3 4 4 2 1 1 0 1 2 2 3 4 4 4 5 5 5 5 5 5 5 5 5 6 7 8 9 10 10 10 11 13 15 16 17 18 19 18 18 17 16 16 16 17 17 18 19 19 20 22 22 23 23 23 21 20 19 19 19 20 22 20 17 15 14 11 10 11 10 8 7 9 11
5 3 2 2 3 3 4 4 3 3 3 3 3 4 5 5 4 3 2 1 1 2 3 3 3 4 4 4 5 6 6 6 6 6 6 6 6 6 7 9 10 10 8 8 11 13 14 16 17 19 19 19 19 17 16 16 17 17 17 17 18 19 19 19 20 22 23 23 21 20 19 19 18 18 20 20 17 15 13 11 10 9 9 9 8 5 4
5 4 2 2 3 3 4 4 3 3 3 3 4 5 5 5 3 2 2 2 2 3 3 4 4 4 4 4 5 5 6 6 6 7 7 7 7 7 8 10 10 9 7 8 11 13 14 16 17 19 19 20 19 18 17 16 16 16 16 16 17 18 19 18 18 20 21 21 20 19 19 18 17 16 18 19 17 15 12 10 10 9 8 9 9 8 7
6 5 3 3 3 4 3 3 2 3 3 4 5 6 5 5 4 3 2 2 3 3 4 4 4 4 4 4 4 4 4 5 6 7 7 6 6 7 9 9 8 8 9 10 11 12 14 15 17 18 19 19 19 17 16 16 16 15 15 15 16 17 17 16 14 12 13 16 16 15 16 16 14 15 17 17 17 15 12 10 9 8 7 10 10 10 12
7 6 5 5 4 4 4 2 2 3 4 5 6 5 5 5 4 3 2 3 4 4 4 4 4 3 3 4 5 5 6 7 7 5 4 5 7 9 10 9 7 8 10 11 10 11 13 15 16 18 18 18 18 17 16 15 15 14 14 15 15 15 14 14 11 7 5 8 10 10 12 13 14 15 15 15 15 13 11 9 8 8 8 10 10 11 13
7 6 5 6 6 5 4 4 4 4 5 6 6 5 5 5 4 4 3 4 4 3 3 3 3 2 3 5 6 5 6 8 6 3 4 8 9 10 10 9 7 9 10 10 9 10 11 13 15 17 17 17 18 18 16 15 13 13 13 14 14 13 13 13 10 7 4 4 6 7 9 11 12 13 13 13 13 12 10 8 7 8 10 10 10 11 14
5 2 2 4 6 5 4 4 5 5 5 6 6 6 5 5 4 4 3 4 4 3 2 2 2 3 4 5 4 3 5 6 5 4 7 10 10 10 10 9 8 9 9 8 8 9 9 11 14 16 16 16 17 18 16 14 12 12 13 13 12 12 13 13 11 8 5 2 3 5 8 9 10 10 10 12 11 9 8 7 6 8 10 10 11 12 14
4 3 3 4 5 4 4 4 5 6 6 6 5 4 4 4 4 3 2 3 3 3 2 2 2 3 3 3 2 2 2 3 4 5 8 9 8 8 9 8 9 9 8 6 7 10 10 11 14 15 14 14 15 17 17 15 13 13 13 12 11 11 12 12 11 9 6 3 1 1 3 5 6 6 8 11 9 6 7 7 7 8 10 10 13 15 16
5 4 4 4 4 4 4 5 5 6 7 7 5 4 4 4 4 3 2 2 3 3 3 2 2 3 2 2 2 1 1 2 4 5 6 6 6 7 7 8 9 10 7 6 8 11 11 12 14 14 12 11 13 16 17 16 14 14 14 13 12 12 12 12 13 11 9 7 5 5 5 4 3 3 6 8 8 8 8 9 9 9 10 11 14 17 18
6 5 4 4 4 4 5 6 6 7 7 8 7 6 6 5 4 3 2 2 3 3 3 3 2 2 2 2 2 1 1 2 3 4 5 5 4 5 6 6 7 8 7 7 11 13 12 13 14 13 11 11 12 14 16 17 16 15 15 15 14 14 13 13 14 13 12 11 9 7 7 8 8 7 7 8 8 9 9 9 10 11 11 11 14 16 17
6 5 4 4 4 5 5 6 7 7 7 7 7 7 6 5 3 3 3 3 3 3 4 4 3 2 2 2 2 2 2 2 3 4 4 3 3 4 4 5 6 7 7 9 12 12 12 13 14 12 10 11 11 12 14 15 16 15 15 15 15 15 15 15 15 14 13 12 11 10 9 9 10 10 9 9 10 10 10 10 10 12 13 13 14 15 15
6 6 5 5 5 5 6 7 7 7 7 7 7 7 6 5 4 3 4 3 2 3 4 4 4 3 3 3 2 2 2 2 2 3 3 3 3 3 3 2 4 6 8 10 11 11 11 12 13 10 9 11 11 11 12 13 15 14 14 14 15 16 15 16 16 15 14 14 13 13 13 12 12 12 12 12 13 14 14 13 12 13 14 14 14 16 16
6 6 6 6 6 6 7 7 7 7 7 7 7 6 6 5 4 4 4 3 2 3 4 4 5 4 3 3 3 2 2 2 1 1 2 3 4 6 5 2 2 5 8 9 9 8 9 11 12 10 9 10 11 11 11 11 12 12 12 13 14 14 14 15 15 15 15 15 14 14 15 15 15 15 15 15 16 16 15 15 14 14 15 16 18 19 19
6 6 7 7 7 7 7 7 8 8 7 7 7 7 6 5 4 4 4 3 2 3 4 4 5 5 3 3 2 1 2 3 3 2 3 5 5 5 4 0 3 5 7 7 7 8 9 10 11 10 10 10 11 11 11 11 10 10 11 12 13 13 13 13 14 14 14 14 14 15 16 16 16 16 16 16 16 16 15 14 14 14 15 15 17 17 18
7 7 7 7 7 7 7 7 8 8 8 8 8 8 8 6 6 5 5 3 2 3 4 4 4 5 4 3 2 2 3 4 4 4 4 4 4 4 3 2 4 5 5 5 6 7 7 8 8 10 11 10 9 10 11 10 9 9 10 11 12 12 12 12 13 13 13 13 13 14 15 16 17 17 16 16 16 16 16 15 15 15 15 14 13 13 13
8 7 7 7 6 6 7 7 7 8 8 8 9 9 8 7 7 6 5 4 4 4 3 3 4 5 5 4 4 3 4 5 5 5 5 4 2 2 3 3 3 4 5 5 5 5 6 7 8 9 10 9 9 9 9 9 8 8 9 10 11 11 12 12 13 12 12 12 13 12 12 14 15 15 15 14 15 15 16 16 15 14 13 12 11 12 12
9 8 8 7 6 6 7 7 7 8 8 8 8 9 8 8 7 6 5 5 4 4 3 4 4 5 5 5 5 4 3 4 4 5 5 4 4 2 1 2 3 4 3 3 4 4 5 7 8 8 9 8 7 7 8 7 7 8 9 9 9 10 11 12 13 13 13 12 12 12 12 12 13 12 12 12 12 12 13 13 13 12 11 11 12 12 13
9 9 9 8 7 7 7 7 7 7 7 7 7 8 9 9 9 7 6 6 5 4 4 3 4 5 6 6 5 4 3 2 3 3 3 3 2 2 1 0 2 2 2 2 3 4 5 6 7 8 8 6 6 7 7 6 7 8 8 8 9 9 10 11 11 12 12 12 12 12 12 11 11 11 11 11 11 11 11 11 11 11 11 11 12 11 11
9 10 10 9 9 9 9 8 7 7 7 7 7 8 9 10 10 9 7 7 6 6 5 4 4 4 5 5 5 5 3 3 3 4 3 2 0 1 2 1 1 1 2 2 3 3 4 5 7 7 6 5 6 6 6 5 6 7 8 8 8 9 9 10 10 11 11 11 12 12 12 12 11 11 11 11 11 11 11 11 11 11 11 11 11 11 11
9 10 10 10 11 10 9 8 7 7 8 8 8 8 8 10 11 10 9 8 7 6 6 5 4 4 5 5 6 5 5 4 4 4 4 3 2 2 2 1 1 2 2 2 2 2 2 4 5 5 5 7 7 6 5 6 7 7 7 8 8 8 8 9 9 9 10 10 11 11 11 11 11 11 11 11 11 10 10 10 10 10 10 10 10 10 9
8 9 9 9 10 9 9 9 9 9 10 10 10 8 8 8 10 10 10 9 8 7 7 7 6 5 5 5 6 6 5 4 3 3 4 5 4 3 3 3 2 3 3 2 2 2 2 3 3 3 6 7 7 6 6 7 7 7 7 8 8 8 8 9 8 8 9 9 9 9 9 9 9 9 9 9 9 9 9 9 9 8 8 8 8 8 8
6 7 7 7 8 8 9 9 9 10 10 11 11 10 8 8 9 10 10 10 10 9 9 8 8 7 6 6 6 6 5 5 3 2 3 4 4 4 4 4 3 3 4 2 0 1 2 2 1 3 5 6 5 5 6 7 7 8 8 9 9 9 10 10 10 10 10 9 9 9 9 9 8 8 8 8 8 8 7 7 7 6 6 6 6 6 6
6 7 7 8 8 9 9 9 9 9 9 10 10 9 8 8 8 9 10 10 11 11 10 9 9 8 8 8 7 7 6 6 5 3 3 4 4 4 4 4 3 3 4 3 2 1 1 2 2 3 4 4 4 4 5 6 7 7 8 9 9 10 10 10 10 10 10 10 10 10 10 10 9 9 9 8 8 8 8 7 7 6 6 6 5 5 5
7 7 8 9 9 9 10 10 10 10 10 9 8 8 8 9 9 9 9 10 10 10 10 10 10 9 9 9 8 8 8 7 7 6 5 4 4 5 5 5 5 4 4 3 2 2 1 1 1 2 2 3 3 4 5 6 6 7 7 8 8 9 9 9 10 10 10 10 10 10 10 10 10 10 10 9 9 9 8 8 8 7 7 6 6 6 5
7 8 8 8 8 8 8 9 10 10 10 9 9 8 9 9 9 9 9 10 11 11 12 11 11 10 10 10 9 9 9 9 8 8 7 6 6 6 6 6 6 5 4 3 3 3 2 2 3 3 2 2 2 4 5 6 6 6 6 7 7 8 8 9 9 9 9 10 10 10 10 10 10 10 10 10 9 9 9 8 8 8 8 8 7 7 7
Wind_Direction
80 54 43 41 59 77 74 72 70 62 63 76 80 45 9 350 296 195 124 120 113 99 107 111 101 103 108 106 112 118 120 123 126 126 123 117 107 95 88 84 82 82 81 79 78 77 80 84 88 91 92 91 92 92 90 88 89 96 103 112 122 128 137 145 154 165 169 178 195 206 211 216 219 224 230 230 226 220 214 210 211 212 214 216 215 212 207
119 84 60 48 48 61 70 66 60 58 63 68 72 67 49 50 63 79 103 104 91 86 104 101 91 95 102 107 115 118 117 118 120 118 114 109 101 95 91 87 85 84 81 79 77 74 73 72 73 76 77 80 85 84 83 85 87 89 93 97 103 110 113 108 110 129 143 156 183 199 209 217 219 221 222 221 220 221 219 216 217 217 217 220 220 219 216
148 119 81 63 42 35 36 27 26 38 53 60 61 54 43 57 81 93 101 94 84 87 99 96 98 99 99 103 105 107 111 113 112 108 105 104 100 96 94 90 88 87 83 81 80 77 74 71 70 70 71 73 75 73 72 76 79 81 83 88 94 96 95 97 103 118 134 153 179 195 205 214 220 224 222 216 218 222 222 223 224 222 222 221 221 224 225
191 171 130 91 54 20 330 307 347 29 36 52 56 41 13 18 88 121 123 102 97 114 110 101 98 92 87 85 85 86 86 85 89 91 91 96 97 95 93 89 86 83 79 77 76 76 77 75 73 72 74 74 71 67 65 65 67 71 73 77 85 88 90 97 104 113 131 163 193 207 212 216 219 223 223 219 220 222 226 231 232 231 229 220 216 224 229
194 165 151 117 72 313 280 267 35 54 75 104 86 53 29 13 6 135 122 100 112 128 124 109 97 86 76 69 68 71 69 62 62 65 68 74 79 79 78 77 76 73 70 68 67 69 70 69 68 67 68 69 66 63 64 63 65 67 68 68 69 71 78 85 89 94 106 128 177 215 222 222 221 220 222 222 221 221 228 231 230 235 238 220 219 233 239
186 146 135 138 205 228 246 191 118 57 101 125 109 71 46 29 19 66 92 105 118 124 119 108 97 87 79 73 68 66 68 68 61 57 55 55 62 66 64 62 62 60 60 59 58 60 62 61 61 59 57 58 60 61 62 63 62 62 64 66 64 61 62 66 69 71 74 84 93 143 206 219 222 222 223 218 210 214 226 232 231 236 240 229 229 239 247
173 134 142 178 212 222 20 57 148 144 117 115 105 88 65 61 89 106 107 113 115 108 105 103 98 93 85 76 67 59 59 66 65 60 49 38 41 49 52 52 51 50 51 50 47 48 51 52 53 50 46 43 47 52 53 54 53 51 53 58 59 56 55 55 53 46 44 50 56 88 206 218 223 226 223 213 208 216 227 230 226 221 218 213 217 230 243
157 161 185 202 189 105 68 86 127 133 135 132 115 93 70 68 103 120 115 113 114 111 111 109 108 106 96 81 71 63 59 60 62 63 59 47 40 36 33 35 37 35 36 38 38 39 42 43 42 40 35 30 33 39 40 40 41 39 39 43 43 39 31 27 19 2 354 4 16 183 205 219 224 225 219 209 206 208 209 206 197 189 191 198 205 214 227
211 211 205 168 118 147 134 121 122 115 126 144 119 95 88 68 93 125 123 121 121 121 122 122 124 124 113 93 78 74 72 74 76 73 69 69 71 59 41 35 35 30 26 26 26 27 31 34 31 28 24 19 20 26 28 25 23 26 30 31 29 23 13 3 351 333 316 298 274 256 250 247 240 234 224 213 203 193 188 186 180 175 176 180 182 182 188
226 231 214 183 195 201 141 124 118 56 21 328 317 105 114 97 102 128 131 130 129 130 134 135 143 155 137 104 84 73 69 68 72 72 64 58 60 60 50 40 38 34 27 23 21 20 22 24 22 17 12 10 9 10 13 11 8 12 20 19 16 11 3 352 338 325 316 304 290 280 269 260 257 248 226 208 193 182 177 173 169 166 164 163 164 164 167
204 229 228 217 219 196 98 117 113 66 9 282 276 201 146 137 133 134 136 136 135 136 141 145 170 216 183 120 92 69 62 59 53 52 53 47 43 44 40 32 26 24 20 17 17 17 17 17 14 8 5 4 1 358 360 358 354 359 7 4 359 356 350 341 328 317 309 304 300 292 278 268 266 253 221 193 181 177 177 174 168 166 166 164 161 159 159
191 231 238 227 136 73 82 87 52 26 358 253 234 219 167 144 143 137 133 135 131 129 150 164 172 339 84 107 91 67 64 65 54 43 40 34 28 27 26 20 12 7 7 7 7 8 9 6 2 359 358 356 351 348 346 342 340 344 348 346 340 336 330 324 318 313 308 304 302 298 289 282 273 252 224 201 188 185 190 190 180 175 174 171 163 157 157
199 216 231 229 80 85 84 40 14 358 303 218 224 209 129 131 136 125 113 112 104 97 109 119 80 60 64 82 86 71 57 54 47 40 33 26 22 20 17 12 5 357 356 357 357 356 355 352 348 347 347 343 337 334 329 324 323 325 327 326 322 319 316 311 308 309 310 309 308 302 294 287 276 258 240 228 212 203 205 202 190 184 181 176 169 164 161
215 209 219 218 106 72 45 39 52 321 251 201 150 101 115 124 123 113 102 92 83 78 71 71 83 85 76 72 68 54 44 35 26 20 17 13 11 10 6 3 1 354 346 345 348 347 345 342 339 336 331 325 320 316 312 310 310 312 313 313 311 309 307 305 304 305 305 305 306 302 295 288 278 265 251 241 230 221 218 211 199 190 186 182 176 168 163
249 204 210 227 160 70 13 344 143 130 306 125 114 112 119 113 104 102 96 80 72 74 76 76 78 78 71 60 47 37 30 20 8 6 6 2 359 357 353 353 356 351 341 338 341 339 336 334 332 327 319 311 306 301 299 300 303 304 304 304 302 300 298 298 297 295 294 294 294 291 288 286 279 268 257 245 234 226 222 217 207 197 191 189 185 176 170
282 219 198 286 83 81 27 2 90 85 77 106 120 116 114 110 105 100 89 76 66 62 70 76 72 64 56 41 29 19 10 6 2 360 0 357 355 351 347 348 351 345 335 332 332 329 329 330 326 319 312 305 299 295 294 295 295 295 294 295 292 290 288 288 286 285 284 282 280 277 277 276 273 266 257 247 238 230 225 220 213 207 201 195 194 193 185
26 39 76 78 91 95 72 68 89 92 92 104 112 110 110 106 93 84 85 84 71 54 54 64 61 53 42 30 20 6 360 3 2 356 355 352 348 345 341 341 344 338 330 327 326 325 327 328 324 318 314 307 301 298 298 298 296 292 289 288 284 282 281 280 278 278 277 275 272 270 268 265 262 260 255 247 240 233 227 221 217 215 209 203 204 205 189
92 71 83 100 106 103 96 89 89 86 85 86 87 91 95 84 69 69 74 76 67 53 45 49 53 51 39 28 23 10 1 2 0 352 347 345 344 342 340 341 342 336 330 327 328 329 330 330 326 321 316 309 304 303 304 304 300 296 293 289 282 278 275 273 272 272 271 270 268 265 261 257 255 254 252 248 243 237 231 227 224 220 215 213 218 217 202
135 102 108 112 107 106 103 95 85 77 74 75 75 79 84 80 75 77 79 82 83 71 56 51 58 68 55 33 22 16 5 360 357 350 347 348 347 346 345 345 343 338 333 333 333 330 329 328 326 322 319 315 311 310 309 307 303 300 297 293 287 282 277 273 270 266 263 263 262 260 258 255 252 249 247 246 245 241 235 230 227 224 221 219 223 226 221
109 113 124 124 114 113 115 107 99 92 88 89 90 95 102 104 100 97 97 95 87 74 65 58 52 60 56 34 17 12 5 360 356 350 350 350 347 345 344 342 339 337 334 333 332 330 328 329 327 325 322 319 316 315 312 310 307 302 298 295 291 288 284 280 275 269 264 262 260 258 257 254 251 249 244 240 241 242 239 235 232 229 226 223 223 227 227
112 120 139 144 134 133 141 130 114 110 108 106 106 108 110 109 102 97 91 77 64 61 62 52 38 40 45 32 16 4 360 360 355 352 351 347 344 343 342 340 340 339 336 335 334 332 330 329 326 323 319 316 315 314 311 309 307 301 296 294 292 289 286 282 278 274 270 265 261 258 258 256 253 250 245 240 238 240 242 245 245 238 230 227 226 226 225
150 138 151 158 152 144 151 144 124 113 111 112 112 108 99 90 86 79 75 78 81 79 69 50 33 28 30 22 9 357 355 356 352 348 346 343 343 346 346 344 346 345 340 336 332 328 327 326 322 319 317 314 312 310 307 304 301 297 293 290 288 287 285 281 279 277 274 269 264 260 257 255 253 251 247 244 245 246 243 244 245 240 232 227 224 223 226
81 116 139 144 27 90 133 140 135 125 121 121 113 98 78 76 72 56 59 87 97 92 82 62 35 17 7 3 357 351 347 346 342 339 339 340 341 343 344 343 343 340 336 332 328 326 325 324 321 319 316 312 309 306 303 299 296 294 292 288 284 283 282 281 281 280 276 273 270 266 259 254 251 250 246 242 243 246 246 244 242 238 233 226 218 213 214
80 112 125 100 54 91 119 129 131 127 130 127 99 83 75 76 70 57 57 65 58 51 55 47 22 3 351 349 349 344 338 336 333 329 330 330 328 329 330 330 331 331 330 328 325 324 323 323 322 318 313 310 309 306 302 298 295 292 289 284 281 279 277 277 278 278 274 272 270 268 264 257 251 249 247 243 236 232 237 244 246 240 233 227 222 218 213
87 104 101 82 75 92 106 116 123 120 112 88 76 66 44 44 55 72 76 63 42 17 354 348 352 350 343 341 342 340 334 328 324 321 318 313 313 314 315 319 323 325 324 321 319 320 323 323 321 316 313 312 312 308 303 299 295 291 287 282 278 276 274 272 272 271 270 269 267 265 263 258 251 247 246 246 240 225 219 226 234 233 228 225 226 224 217
90 103 106 96 92 103 120 130 131 133 134 110 79 47 40 48 65 87 76 51 21 355 339 332 333 335 336 335 335 334 330 322 315 309 302 298 303 305 307 315 320 320 319 317 318 321 323 321 318 313 311 313 313 309 304 300 295 290 286 282 278 274 271 268 266 265 265 266 265 263 262 258 251 244 242 243 245 237 216 201 203 212 217 217 215 214 211
107 119 129 126 122 142 166 145 105 143 167 177 227 229 162 148 160 158 108 83 27 346 335 326 321 322 326 329 330 330 330 324 314 302 295 296 300 302 308 316 318 317 317 317 319 322 321 319 316 312 310 311 313 310 306 302 296 291 286 281 277 273 270 267 263 260 259 260 260 261 261 259 253 244 239 238 240 240 231 213 198 197 199 202 205 208 205
123 120 124 99 113 143 154 125 111 153 175 194 230 221 181 167 173 185 189 176 357 336 326 324 322 317 320 329 331 330 331 329 318 307 300 296 298 305 314 318 318 318 319 319 321 323 323 320 316 310 310 315 318 315 310 306 299 294 290 286 282 280 277 274 268 261 254 252 252 253 256 260 259 248 238 234 234 236 235 226 204 186 168 152 171 202 210
138 128 104 59 66 104 132 142 157 176 188 211 220 202 183 180 188 201 215 254 310 311 312 322 323 316 317 326 333 335 336 335 328 316 303 298 305 315 320 321 318 315 316 322 327 327 326 324 320 315 317 324 327 323 317 314 307 302 299 297 295 294 292 288 281 270 256 246 244 245 248 257 265 256 238 230 229 231 231 223 209 194 164 137 136 152 180
146 149 150 124 124 146 153 161 186 201 199 201 200 190 187 194 208 220 235 266 286 298 310 317 318 316 317 324 334 338 334 331 328 319 308 307 313 319 323 324 321 319 323 330 331 329 327 327 327 326 327 330 332 328 323 319 314 310 307 305 303 305 306 303 294 280 261 244 236 236 240 247 258 258 244 230 221 224 228 220 210 204 177 150 149 151 151
152 158 166 155 158 176 182 190 214 219 206 197 194 191 192 202 216 233 252 274 292 305 312 312 311 310 307 311 321 321 317 321 326 322 313 312 318 325 328 323 312 307 310 310 315 327 332 330 332 335 334 334 334 333 330 326 321 318 317 315 313 316 321 321 315 296 265 241 229 229 233 236 243 251 247 231 217 217 222 214 201 192 161 143 148 154 156
154 161 175 183 186 200 213 219 218 217 206 196 196 199 200 206 220 240 260 286 301 306 305 306 308 305 295 294 298 304 315 324 326 322 320 322 324 331 334 323 297 290 295 295 302 323 332 331 333 337 337 338 342 342 338 332 326 325 328 328 325 326 330 332 334 329 282 239 226 225 227 229 237 244 238 221 208 209 211 203 194 183 162 148 147 153 162
164 169 188 196 197 209 222 222 220 219 202 189 198 211 208 209 227 248 268 288 298 298 294 297 299 288 283 286 290 302 323 327 320 319 342 337 332 336 340 331 310 299 299 299 306 321 329 332 334 334 335 344 352 350 342 337 333 332 335 336 335 336 338 339 340 337 309 248 230 229 223 223 236 242 225 205 199 199 194 187 180 173 167 154 142 151 172
181 183 188 187 194 214 231 221 213 211 197 190 199 208 205 213 235 255 276 294 293 274 260 270 277 276 281 288 291 307 330 331 323 329 340 338 337 341 345 341 328 318 312 309 319 328 332 335 334 332 335 347 355 354 348 345 344 343 342 342 344 346 347 348 349 346 333 303 250 235 221 221 239 243 213 191 187 181 168 160 153 156 158 144 127 136 162
174 151 137 161 191 218 237 226 209 200 193 190 194 202 210 225 242 251 265 282 275 244 218 226 265 280 280 280 280 286 319 326 321 324 334 337 338 341 347 351 346 337 326 319 332 340 338 336 339 345 349 353 356 358 358 358 355 353 353 353 354 357 358 0 5 8 8 10 43 178 189 211 241 240 196 175 163 135 123 125 127 137 144 134 122 128 144
176 166 157 168 190 204 212 214 204 192 187 180 172 184 216 233 243 250 257 264 259 234 200 199 260 285 267 242 241 255 283 305 306 314 328 335 335 342 350 353 347 340 327 320 341 349 341 336 348 1 4 358 358 1 6 9 8 3 3 6 8 9 12 15 19 26 33 42 68 98 120 137 148 153 155 151 133 111 112 118 117 121 129 125 120 124 133
190 189 180 178 182 192 200 199 191 188 188 182 177 189 211 223 234 256 276 278 265 237 205 200 227 262 249 230 239 263 279 294 307 316 321 325 336 350 353 347 344 341 329 328 345 350 341 340 357 10 7 360 1 2 5 15 21 15 12 17 19 18 21 25 27 32 39 47 63 92 118 127 124 120 122 118 106 100 106 112 110 111 114 117 120 126 132
188 194 193 184 182 189 192 189 186 187 189 189 193 203 213 220 238 273 284 278 261 239 222 220 225 231 226 223 241 273 282 300 329 337 332 330 347 356 347 345 352 348 333 336 346 345 338 345 2 8 359 359 5 360 1 17 28 23 17 22 25 24 27 32 35 38 43 47 55 70 87 101 107 106 103 99 95 94 97 102 108 112 114 116 120 125 128
186 192 192 187 188 190 184 183 189 193 196 203 209 209 209 216 240 271 282 276 254 237 239 242 240 234 232 236 240 240 241 266 332 357 358 353 342 316 292 317 360 348 335 343 347 339 338 354 4 358 350 360 4 353 354 13 27 25 21 26 30 30 32 36 38 42 46 49 54 62 69 77 87 92 93 93 93 91 92 96 104 111 113 115 117 118 121
191 192 190 188 193 194 189 190 198 205 210 217 220 217 213 218 235 265 280 271 237 229 244 252 249 244 248 259 258 226 190 198 250 327 320 304 301 285 261 233 27 351 340 348 352 345 353 6 4 352 352 1 359 353 358 12 22 24 27 31 33 34 35 35 36 41 45 46 51 59 66 73 79 83 87 90 91 90 93 97 101 102 103 104 108 113 118
195 192 191 190 195 200 201 203 210 216 220 223 225 225 226 229 243 268 283 279 240 232 247 253 253 254 262 272 272 241 189 197 214 244 267 276 284 283 270 15 30 353 338 352 2 359 3 4 357 355 3 360 352 360 16 22 20 25 34 37 38 39 39 37 37 41 45 47 50 56 64 71 77 80 83 86 87 88 91 92 90 91 94 98 104 112 117
199 196 197 198 199 204 207 211 217 223 226 226 225 225 228 233 244 263 279 279 252 246 251 249 249 261 271 268 257 244 219 210 215 230 246 259 283 300 313 6 10 341 336 358 2 353 355 359 356 2 11 7 359 11 26 26 24 32 41 43 43 44 44 43 44 46 49 52 54 57 60 65 70 73 76 77 79 84 89 89 87 89 95 99 103 107 110
206 204 208 209 206 208 212 214 217 223 227 228 225 225 226 231 241 256 268 259 239 244 254 244 234 240 246 243 240 241 229 215 216 228 230 226 238 289 316 343 341 330 343 6 359 347 359 9 4 5 12 14 15 23 26 22 27 41 46 46 49 50 49 49 51 52 52 54 55 55 57 60 65 68 71 72 76 82 87 89 89 91 94 96 99 103 106
214 213 216 215 208 207 212 215 217 223 228 230 227 225 225 228 236 249 258 250 234 233 249 250 236 230 230 232 236 242 235 216 214 225 228 216 206 212 249 327 328 326 345 10 6 360 9 11 7 8 12 15 22 30 27 23 34 49 52 52 55 55 54 55 56 57 57 58 58 58 59 61 65 69 72 74 76 78 79 83 87 91 93 97 101 104 107
221 221 223 222 214 209 212 214 216 220 226 228 227 225 226 229 234 240 247 249 240 227 227 239 240 233 230 230 232 240 253 247 230 233 249 251 217 168 153 255 315 330 7 34 22 9 6 6 6 8 10 16 30 38 34 31 41 51 57 61 63 62 62 62 62 61 62 63 63 63 64 65 68 71 74 77 79 81 83 87 92 96 100 105 108 109 111
228 227 226 224 221 220 221 220 218 218 221 226 228 227 227 230 234 236 238 243 243 232 221 222 231 232 230 229 226 226 233 235 226 229 253 280 247 154 172 202 219 83 68 56 36 9 357 2 5 7 15 35 46 41 36 41 51 55 59 64 66 66 67 69 68 66 67 67 67 69 71 72 73 76 77 80 83 87 90 94 97 99 102 105 107 109 113
234 231 227 226 227 226 222 215 212 214 217 225 233 235 231 229 232 236 236 237 240 236 227 221 218 219 221 224 224 224 224 219 208 205 211 215 196 187 199 211 113 100 93 65 42 35 19 6 6 17 46 58 54 44 43 53 59 60 62 65 67 68 70 72 73 74 74 73 73 74 75 76 77 79 80 81 83 85 87 92 96 98 101 103 104 106 109
234 236 236 234 232 224 212 204 207 214 220 226 234 241 237 231 231 235 236 234 233 233 230 226 220 214 209 212 219 228 234 236 221 194 188 191 187 177 187 202 181 107 93 71 32 42 48 23 12 44 63 59 51 49 56 59 60 62 64 65 66 69 70 73 75 78 80 80 79 79 79 79 79 80 80 80 80 82 83 86 88 91 95 98 101 103 105
228 237 241 239 232 221 209 205 210 219 225 230 236 240 236 230 230 234 235 233 231 232 230 226 221 216 208 206 210 215 222 233 243 204 171 180 185 178 186 202 196 126 103 99 41 27 54 51 69 79 68 54 48 59 67 66 64 66 65 66 69 72 73 75 78 82 84 85 85 83 83 84 83 82 83 82 81 81 81 82 86 94 101 99 97 100 104
226 226 230 230 225 217 212 214 222 229 232 236 239 235 226 221 225 232 234 232 231 233 232 228 222 216 209 205 205 205 205 211 219 213 191 189 189 178 173 184 189 166 149 151 166 148 73 67 81 79 64 52 56 71 75 73 74 74 73 74 76 77 77 79 82 83 84 86 87 87 87 88 87 86 87 87 86 85 85 84 87 97 105 103 98 102 107
239 234 235 234 229 223 220 225 234 241 242 239 232 220 213 218 229 236 236 232 230 231 232 230 226 220 212 206 204 201 197 198 202 205 206 204 197 186 183 188 193 187 171 160 162 172 181 170 157 130 78 57 73 91 92 89 86 83 81 81 82 82 82 83 84 84 85 88 90 90 89 90 90 89 89 90 89 89 88 87 87 89 92 93 96 103 107
254 252 250 246 241 236 231 230 233 236 238 236 229 215 209 216 228 233 229 224 225 230 232 232 229 224 216 210 206 201 193 191 195 199 198 198 201 199 194 193 195 194 187 181 183 186 190 193 186 176 147 103 106 118 113 104 98 95 91 89 89 89 86 85 86 88 88 89 91 91 91 91 92 93 93 94 94 93 91 90 88 87 88 90 94 97 101